METEOR 2-5 DEB, 38534

Orbit data source: Space-Track

METEOR 2-5 DEB, 38534 is space debris in LEO originally from a launch on Wed, 31 Oct 1979 UTC launched from the Plesetsk Missile And Space Complex (PKMTR). Debris objects in space refer to the collection of defunct objects orbiting the Earth. Examples of debris include non-operational satellites, rocket bodies, and fragments generated from explosions, collisions, or faulty payload assembly.

Loading next visibility...
Identifier
38534, 1979-095CB
Orbit
LEO
Country
Flag of CISCIS
Related business
Manufacturer
Unknown
Mission
Spacecraft
Bus & Motor
Unknown
Mass
Unknown
Launch date (UTC)
1979-10-31 (46 years ago)
Launch vehicle
Unknown
Launch site
Plesetsk Missile And Space Complex (PKMTR)
Object type
Payload
Rocket body
Debris
Shape & HBR
Unknown shape, 0.1 m
Radar Cross Section
Small (<0.1 m²)

Expand to show TLE details & history
Last TLE update: 2 months ago

TLE from 2 months ago
0 METEOR 2-5 DEB
1 38534U 79095CB  25294.89343685  .00010336  00000-0  33954-2 0  9990
2 38534  81.2211   7.6466 0017719 284.5571  75.3649 14.38141473582551
Epoch: 2025-10-21T21:26Z
TLE epoch observation values (Epoch: 2025-10-21T21:26:32.943Z)
Latitude
-0.00013°
Longitude
15.43446°
Altitude
764.405 km
Speed
7.474 km/s
True Right ascension
00h 30m 35s
True Declination
0° 00' 00"
Sunlit
Object was in full shadow at epoch
Visualization orbit readout
Latitude
Unknown
Longitude
Unknown
Altitude
Unknown
Speed
Unknown
Apparent Right ascension
Unknown
Apparent Declination
Unknown
Sunlit
N/A
Visualization observer readout
Local Sidereal Time
11:47:39
Azimuth
Unknown
Elevation
Unknown
Doppler factor
Unknown
Orbital elements
Apogee altitude
774.435 km
Perigee altitude
749.132 km
Semi-major axis
7,139.92 km
Eccentricity
0.00177
Inclination
81.2211°
RAAN
7.6466°
Arg. of periapsis
284.5571°
True anomaly
75.56147°
Mean anomaly
75.3649°
Eccentric anomaly
75.46317°
Mean motion
3.59752 °/min
Orbital period
100.07 mins
BSTAR
0.0033954
Loading maneuver chart data...
Computing Atmospheric mass density...
Loading historical data...
Loading historical data...
Loading historical data...
Loading historical data...
Loading historical data...
Loading historical data...
Loading historical data...

Documentation

Showing up to 5 results
|